Location: Hannover
(52.3723°N, 9.7339°E)
Time: 11:35:24
(UTC+02:00)

ISS - Visible Passes

Search period start: 25 September 2017 00:00
Search period end: 05 October 2017 00:00
Orbit: 401 x 407 km, 51.6° (Epoch: 25 September)

Date Brightness Start Highest point End Pass type
(mag) Time Alt. Az. Time Alt. Az. Time Alt. Az.
26 Sep -1.8 20:28:27 10° S 20:29:49 14° SSE 20:29:49 14° SSE visible
27 Sep -2.2 21:10:56 10° SW 21:12:39 24° SSW 21:12:39 24° SSW visible
28 Sep -2.5 20:19:00 10° SSW 20:21:43 24° SSE 20:22:38 21° ESE visible
28 Sep -1.1 21:54:36 10° WSW 21:55:17 15° WSW 21:55:17 15° WSW visible
29 Sep -3.4 21:02:18 10° WSW 21:05:07 49° SSW 21:05:07 49° SSW visible
30 Sep -3.2 20:10:06 10° SW 20:13:10 39° SSE 20:14:52 22° E visible
30 Sep -1.5 21:46:12 10° W 21:47:30 22° W 21:47:30 22° W visible
01 Oct -3.9 20:53:48 10° WSW 20:57:04 71° S 20:57:10 70° SSE visible
02 Oct -3.6 20:01:26 10° WSW 20:04:40 58° SSE 20:06:45 20° E visible
02 Oct -1.8 21:37:46 10° W 21:39:24 27° W 21:39:24 27° W visible
03 Oct -4.0 20:45:19 10° W 20:48:36 80° S 20:48:57 68° ESE visible
04 Oct -3.8 19:52:53 10° WSW 19:56:09 74° S 19:58:28 18° E visible
04 Oct -1.9 21:29:18 10° W 21:31:06 29° W 21:31:06 29° W visible
